TimeCST,TemperatureF,Dew PointF,Humidity,Sea Level PressureIn,VisibilityMPH,Wind Direction,Wind SpeedMPH,Gust SpeedMPH,PrecipitationIn,Events,Conditions,WindDirDegrees,DateUTC
12:12 AM,33.8,19.4,56,30.00,10.0,SSW,9.2,-,N/A,,Clear,200,2011-11-07 06:12:00
12:33 AM,33.8,19.4,56,30.01,10.0,SSW,8.1,-,N/A,,Clear,210,2011-11-07 06:33:00
12:52 AM,33.8,19.4,56,30.02,10.0,SW,8.1,-,N/A,,Clear,220,2011-11-07 06:52:00
1:12 AM,30.2,19.4,64,30.03,10.0,West,9.2,-,N/A,,Clear,280,2011-11-07 07:12:00
1:33 AM,28.4,19.4,69,30.03,10.0,West,5.8,-,N/A,,Clear,260,2011-11-07 07:33:00
2:12 AM,28.4,19.4,69,30.05,10.0,WSW,6.9,-,N/A,,Clear,250,2011-11-07 08:12:00
2:33 AM,26.6,19.4,74,30.06,10.0,WSW,8.1,-,N/A,,Clear,250,2011-11-07 08:33:00
2:52 AM,26.6,17.6,69,30.06,10.0,West,6.9,-,N/A,,Clear,260,2011-11-07 08:52:00
3:12 AM,24.8,17.6,74,30.06,10.0,West,6.9,-,N/A,,Clear,260,2011-11-07 09:12:00
3:33 AM,24.8,17.6,74,30.07,10.0,West,4.6,-,N/A,,Clear,260,2011-11-07 09:33:00
3:53 AM,26.6,19.4,74,30.08,10.0,WSW,5.8,-,N/A,,Clear,250,2011-11-07 09:53:00
4:12 AM,24.8,17.6,74,30.08,10.0,West,6.9,-,N/A,,Clear,270,2011-11-07 10:12:00
4:32 AM,24.8,17.6,74,30.09,10.0,West,8.1,-,N/A,,Clear,270,2011-11-07 10:32:00
4:52 AM,24.8,17.6,74,30.10,10.0,SW,4.6,-,N/A,,Clear,220,2011-11-07 10:52:00
5:12 AM,26.6,19.4,74,30.11,10.0,SSW,6.9,-,N/A,,Clear,210,2011-11-07 11:12:00
5:32 AM,24.8,17.6,74,30.11,10.0,SSW,6.9,-,N/A,,Clear,210,2011-11-07 11:32:00
5:52 AM,24.8,17.6,74,30.12,10.0,SSW,6.9,-,N/A,,Clear,200,2011-11-07 11:52:00
6:12 AM,24.8,17.6,74,30.12,10.0,SW,6.9,-,N/A,,Clear,220,2011-11-07 12:12:00
6:33 AM,24.8,17.6,74,30.12,10.0,SSW,6.9,-,N/A,,Clear,210,2011-11-07 12:33:00
6:52 AM,24.8,17.6,74,30.13,10.0,SW,6.9,-,N/A,,Clear,220,2011-11-07 12:52:00
7:12 AM,26.6,17.6,69,30.13,10.0,WSW,6.9,-,N/A,,Clear,240,2011-11-07 13:12:00
7:33 AM,19.4,14.0,80,30.14,10.0,Calm,Calm,-,N/A,,Clear,0,2011-11-07 13:33:00
7:52 AM,23.0,15.8,74,30.16,10.0,Calm,Calm,-,N/A,,Clear,0,2011-11-07 13:52:00
8:12 AM,26.6,17.6,69,30.17,10.0,Calm,Calm,-,N/A,,Clear,0,2011-11-07 14:12:00
8:33 AM,28.4,17.6,64,30.17,10.0,WSW,4.6,-,N/A,,Clear,240,2011-11-07 14:33:00
8:52 AM,32.0,19.4,60,30.17,10.0,West,6.9,-,N/A,,Clear,270,2011-11-07 14:52:00
9:12 AM,33.8,19.4,56,30.18,10.0,West,5.8,-,N/A,,Clear,260,2011-11-07 15:12:00
9:33 AM,37.4,21.2,52,30.18,10.0,West,9.2,-,N/A,,Clear,270,2011-11-07 15:33:00
9:52 AM,41.0,23.0,49,30.18,10.0,WNW,10.4,-,N/A,,Clear,290,2011-11-07 15:52:00
10:12 AM,42.8,21.2,42,30.19,10.0,West,12.7,-,N/A,,Clear,280,2011-11-07 16:12:00
10:32 AM,42.8,21.2,42,30.19,10.0,West,10.4,-,N/A,,Clear,280,2011-11-07 16:32:00
10:52 AM,42.8,21.2,42,30.19,10.0,WNW,10.4,-,N/A,,Clear,290,2011-11-07 16:52:00
11:13 AM,44.6,21.2,39,30.20,10.0,West,5.8,-,N/A,,Clear,280,2011-11-07 17:13:00
11:32 AM,46.4,19.4,34,30.19,10.0,WNW,9.2,-,N/A,,Clear,290,2011-11-07 17:32:00
11:52 AM,46.4,19.4,34,30.18,10.0,West,8.1,-,N/A,,Clear,270,2011-11-07 17:52:00
12:13 PM,46.4,19.4,34,30.17,10.0,WNW,9.2,-,N/A,,Clear,300,2011-11-07 18:13:00
12:32 PM,48.2,19.4,32,30.17,10.0,West,5.8,-,N/A,,Clear,260,2011-11-07 18:32:00
12:52 PM,48.2,17.6,30,30.16,10.0,West,8.1,-,N/A,,Clear,280,2011-11-07 18:52:00
1:12 PM,50.0,17.6,28,30.16,10.0,West,4.6,-,N/A,,Clear,260,2011-11-07 19:12:00
1:32 PM,50.0,17.6,28,30.16,10.0,West,9.2,-,N/A,,Clear,270,2011-11-07 19:32:00
1:52 PM,50.0,17.6,28,30.16,10.0,West,9.2,-,N/A,,Clear,280,2011-11-07 19:52:00
2:13 PM,51.8,15.8,24,30.16,10.0,West,8.1,-,N/A,,Clear,270,2011-11-07 20:13:00
2:32 PM,51.8,15.8,24,30.16,10.0,WNW,9.2,-,N/A,,Clear,300,2011-11-07 20:32:00
2:52 PM,50.0,15.8,26,30.17,10.0,WNW,9.2,17.3,N/A,,Clear,300,2011-11-07 20:52:00
3:12 PM,50.0,15.8,26,30.17,10.0,WNW,8.1,-,N/A,,Clear,300,2011-11-07 21:12:00
3:32 PM,48.2,17.6,30,30.17,10.0,NW,10.4,-,N/A,,Clear,320,2011-11-07 21:32:00
3:53 PM,48.2,15.8,27,30.16,10.0,NW,9.2,-,N/A,,Clear,310,2011-11-07 21:53:00
4:12 PM,46.4,17.6,32,30.17,10.0,NW,5.8,-,N/A,,Clear,310,2011-11-07 22:12:00
5:12 PM,42.8,15.8,34,30.18,10.0,NW,3.5,-,N/A,,Clear,310,2011-11-07 23:12:00
5:32 PM,41.0,15.8,36,30.19,10.0,WNW,3.5,-,N/A,,Clear,300,2011-11-07 23:32:00
5:53 PM,39.2,15.8,39,30.20,10.0,Calm,Calm,-,N/A,,Clear,0,2011-11-07 23:53:00
6:12 PM,39.2,15.8,39,30.20,10.0,Calm,Calm,-,N/A,,Clear,0,2011-11-08 00:12:00
6:33 PM,39.2,15.8,39,30.21,10.0,Calm,Calm,-,N/A,,Clear,0,2011-11-08 00:33:00
6:53 PM,39.2,17.6,42,30.21,10.0,Calm,Calm,-,N/A,,Clear,0,2011-11-08 00:53:00
7:12 PM,37.4,15.8,41,30.22,10.0,Calm,Calm,-,N/A,,Clear,0,2011-11-08 01:12:00
7:33 PM,37.4,17.6,45,30.21,10.0,Calm,Calm,-,N/A,,Clear,0,2011-11-08 01:33:00
7:52 PM,37.4,17.6,45,30.19,10.0,North,4.6,-,N/A,,Clear,10,2011-11-08 01:52:00
8:12 PM,37.4,17.6,45,30.18,10.0,North,8.1,-,N/A,,Clear,360,2011-11-08 02:12:00
8:33 PM,37.4,17.6,45,30.18,10.0,North,5.8,-,N/A,,Clear,350,2011-11-08 02:33:00
8:53 PM,37.4,17.6,45,30.18,10.0,North,5.8,-,N/A,,Clear,360,2011-11-08 02:53:00
9:12 PM,35.6,17.6,48,30.18,10.0,North,5.8,-,N/A,,Clear,350,2011-11-08 03:12:00
9:33 PM,35.6,19.4,52,30.18,10.0,North,5.8,-,N/A,,Scattered Clouds,360,2011-11-08 03:33:00
9:52 PM,35.6,19.4,52,30.18,10.0,North,5.8,-,N/A,,Scattered Clouds,360,2011-11-08 03:52:00
10:12 PM,35.6,19.4,52,30.19,10.0,North,5.8,-,N/A,,Clear,10,2011-11-08 04:12:00
10:33 PM,35.6,19.4,52,30.18,10.0,North,6.9,-,N/A,,Scattered Clouds,360,2011-11-08 04:33:00
10:52 PM,35.6,19.4,52,30.19,10.0,North,4.6,-,N/A,,Scattered Clouds,350,2011-11-08 04:52:00
11:13 PM,35.6,19.4,52,30.18,10.0,North,4.6,-,N/A,,Mostly Cloudy,360,2011-11-08 05:13:00
11:32 PM,35.6,21.2,56,30.18,10.0,NNE,3.5,-,N/A,,Mostly Cloudy,20,2011-11-08 05:32:00